Find Starlink 34585

NORAD ID: 64779 Int'l Des: 2025-147 Owner: SPXS Country: US Constellation: starlink operational
LEOCIRCULAR

リアルタイム位置

3D地球を読み込み中...

Starlink 34585について

説明を読み込み中...

次回通過

Passes for default location (London). Set your location on the main map for personalized predictions.

高度履歴

Loading altitude history...

軌道要素

1 64779U 25147AA 26106.17922515 .00009638 00000-0 33711-3 0 9993
2 64779 53.1578 68.4586 0001176 82.7909 277.3226 15.30201816 44443
Epoch: Apr 16, 2026 • Age: 20 hours

現在のステータス

高度 475.6 km
速度 7.63 km/s
衛星直下点 2.99°N, 148.86°W
打ち上げ日 Jul 8, 2025
運用期間 0.7 years
タイプ internet

技術仕様

分類 Payload
質量 575.00 kg
乾燥質量 530.00 kg
総質量 575.00 kg
長さ 0.30 m
直径 4.10 m
スパン 29.00 m
形状 Box + pan
製造者 SPXS
バスタイプ Starlink V2MO
フェーズステータス In Orbit
所有者/国 SPXS/US

Most Searched